Regional Weather Roundup
Issued by NWS Grand Forks, ND

Home | Current Version | Previous Version | Text Only | Print | Product List | Glossary Off
Versions: 1 2 3 4 5 6 7 8 9 10 11 12 13 14 15 16 17 18 19 20 21 22 23 24 25 26 27 28 29 30 31 32 33 34 35 36 37 38 39 40 41 42 43 44 45 46 47 48 49 50

000
ASUS43 KFGF 300310
RWRFGF
PRAIRIE TO PINES  WEATHER ROUNDUP
NATIONAL WEATHER SERVICE EASTERN NORTH DAKOTA/GRAND FORKS ND
1000 PM CDT MON JUN 29 2015

 **SATELLITE DATA USED TO AUGMENT SKY COVER AT AUTOMATED STATIONS**
 *****  WEATHER ACROSS EASTERN NORTH DAKOTA  *****

CITY           SKY/WX    TMP DP  RH WIND       PRES   REMARKS
GRAND FORKS    CLOUDY    62  60  93 N3        29.91R
GRAND FRKS AFB PTCLDY    64  60  88 N3        29.92R
GRAND FRKS NWS   N/A     66 N/A N/A VRB1        N/A
DEVILS LAKE    PTCLDY    66  57  72 E6        29.94R
FARGO          PTCLDY    67  62  84 N7        29.89R
WAHPETON ARPT  CLEAR     68  61  77 N7        29.90R
$$

 ***** WEATHER ACROSS CENTRAL AND WESTERN NORTH DAKOTA  *****

CITY           SKY/WX    TMP DP  RH WIND       PRES   REMARKS
BISMARCK       PTCLDY    75  65  70 E8        29.90R
MINOT          CLOUDY    74  65  73 E6        29.91R
JAMESTOWN      CLOUDY    68  62  81 NE8       29.92R
MINOT AFB      CLEAR     76  68  76 E8        29.90R
GARRISON         N/A     78  67  68 NE6       29.91S
WILLISTON      CLOUDY    78  53  41 N15       29.96R HAZE
DICKINSON      MOCLDY    74  67  78 E7        29.91R
HETTINGER      MOCLDY    76  66  71 CALM      29.94S
$$

 *****  OTHER AIRPORT OBSERVATIONS IN OUR AREA  *****

CITY           SKY/WX    TMP DP  RH WIND       PRES   REMARKS
WALHALLA       FAIR      66  66 100 MISG      29.94R
GRAFTON AIRPOR FAIR      66  63  88 N5        29.93R
VALLEY CITY AR MOCLDY    66  63  88 CALM      29.93R
CANDO          CLOUDY    64  63  94 E5        29.95S
CAVALIER APRT  FAIR      68  63  83 N3        29.93R
GWINNER        NOT AVBL
SHEYENNE NWR     N/A     69  61  76 N2        29.95S
ROLLA          FAIR      63  59  88 NE3       29.97R
 ***** THE ABOVE OBSERVATIONS ARE NON NWS ARE NOT QUALITY
       CONTROLLED AND MAY MIS-REPORT RAIN FOR SNOW...
$$

  *****  WEATHER ACROSS NORTHERN MINNESOTA  *****

CITY           SKY/WX    TMP DP  RH WIND       PRES   REMARKS
FLAG ISLAND    CLEAR     70  57  64 NE8       29.91R
WARROAD        CLEAR     63  61  94 CALM      29.92R
ROSEAU         CLEAR     64  57  77 CALM      29.92R
HALLOCK        CLEAR     63  57  82 N6        29.91R
THF RVR FALLS  CLEAR     68  61  77 N7        29.92R
BAUDETTE       CLEAR     63  55  75 NW5       29.90R
WASKISH        CLEAR     64  55  72 CALM      29.90R
CROOKSTON      CLEAR     64  61  88 N7        29.91R
$$
  *****  WEATHER ACROSS CENTRAL AND WEST MINNESOTA  *****

CITY           SKY/WX    TMP DP  RH WIND       PRES   REMARKS
FOSSTON        CLEAR     63  57  82 NE6       29.92R
BEMIDJI        CLEAR     65  57  77 N5        29.91R
PARK RAPIDS    CLEAR     70  58  65 N8        29.88R
ELBOW LAKE     FAIR      69  64  85 NW9       29.89R
WADENA         CLEAR     66  63  88 NW5       29.87R
DETROIT LAKES  CLEAR     68  63  83 NW8       29.91R
MOORHEAD       CLEAR     64  63  94 N5        29.90R
FERGUS FALLS   CLEAR     68  64  88 N7        29.89R
MORRIS MN      CLEAR     68  64  88 NW9       29.88R
STAPLES        PTCLDY    68  57  68 CALM      29.87R
$$
  *****  WEATHER ELSEWHERE ACROSS MINNESOTA  *****

CITY           SKY/WX    TMP DP  RH WIND       PRES   REMARKS
DULUTH         CLEAR     66  57  72 N6        29.84R
INTRNTL FALLS  CLEAR     66  56  70 NE7       29.89R
ELY            CLEAR     61  55  82 CALM      29.86R
CLOQUET        CLEAR     66  55  68 N5        29.84S
WHEATON        CLEAR     64  63  94 NW3       29.91R
BRAINERD       CLEAR     71  56  58 N7        29.86R
HIBBING        CLEAR     63  56  78 NW7       29.87R
ALEXANDRIA     CLEAR     69  63  81 NW7       29.89R
SAINT CLOUD    CLEAR     65  63  93 CALM      29.83R FOG
MINNEAPOLIS    MOCLDY    68  61  78 CALM      29.82R
$$

  *****  WEATHER ACROSS SOUTH DAKOTA  *****

CITY           SKY/WX    TMP DP  RH WIND       PRES   REMARKS
SIOUX FALLS    MOCLDY    73  63  70 CALM      29.90R
BROOKINGS      PTCLDY    70  61  73 CALM      29.92R
WATERTOWN      CLOUDY    66  61  84 N7        29.92R
HURON          PTCLDY    74  68  81 CALM      29.89R
SISSETON         N/A     66  62  87 N7        29.90R
ABERDEEN       CLEAR     74  62  66 NE8       29.91R
MITCHELL       PTCLDY    77  66  68 SW6       29.90S
PIERRE         CLEAR     79  60  52 S5        29.90S
MOBRIDGE       CLEAR     82  61  48 E9        29.88S
RAPID CITY     CLEAR     75  63  66 SW3       30.02S
$$

  *****  SOME WEATHER IN NEARBY STATES *****

CITY           SKY/WX    TMP DP  RH WIND       PRES   REMARKS
GLASGOW MT     NOT AVBL
GREAT FALLS MT MOCLDY    86  48  26 E8        29.97S
CHEYENNE WY    CLEAR     74  43  32 CALM      30.26R
SCOTTSBLUFF NE CLEAR     73  56  54 E6        30.09S
OMAHA NE       CLOUDY    73  64  73 E3        29.91R
DES MOINES IA  CLOUDY    73  65  75 W3        29.86S
DAVENPORT IA   MOCLDY    66  62  87 N7        29.85R
CHICAGO IL     PTCLDY    66  64  93 SW3       29.80R
EAU CLAIRE WI  PTCLDY    58  57  97 N5        29.81R FOG
LA CROSSE WI   CLOUDY    64  61  90 E3        29.80R
$$

  *****  SOME NATIONAL WEATHER *****

CITY           SKY/WX    TMP DP  RH WIND       PRES   REMARKS
LA GUARDIA NY  PTCLDY    74  55  51 S7        29.94R
RALEIGH NC     PTCLDY    75  65  70 S3        29.97R
ATLANTA GA     MOCLDY    76  64  66 S7        30.00S
NEW ORLEANS LA MOCLDY    81  72  74 W9        30.02R
OKLAHOMA CITY  MOCLDY    69  64  84 S6        29.96R
ALBUQUERQUE NM MOCLDY    78  50  37 E20       30.15R
SALT LAKE CITY MOCLDY    95  49  20 CALM      29.95F HX  92
LOS ANGELES CA PTCLDY    68  59  73 W9        29.87R
BOISE ID       PTCLDY    94  54  25 CALM      29.88R HX  92
SEATTLE WA     PTCLDY    79  60  52 S8        30.00S
$$

*** WEATHER ACROSS MANITOBA...SASKATCHEWAN AND ONTARIO ***
                ***ONTARIO***

CITY           SKY/WX    TMP DP  RH WIND       PRES   REMARKS
GERALDTON      CLOUDY    50  46  87 NE13G22   29.91R
THUNDER BAY    MOCLDY    61  55  82 N7        29.86R
SIOUX LOOKOUT  MOCLDY    57  48  72 E3        29.96R
TORONTO        PTCLDY    66  57  72 SE5       29.89S
BIG TROUT LK   CLEAR     50  39  66 NE5       30.02R
PICKLE LAKE    NOT AVBL
DRYDEN         CLEAR     59  52  77 NE10      29.94R
KENORA         MOCLDY    61  54  77 NE7       29.95R
$$
                *** MANITOBA***

CITY           SKY/WX    TMP DP  RH WIND       PRES   REMARKS
BRANDON        MOCLDY    61  59  94 NE8       29.97R
DAUPHIN        CLEAR     64  61  88 E2        29.97R
ISLAND LAKE    PTCLDY    57  46  67 VRB2      30.01R
PILOT MOUND      N/A     64  61  88 NE3         N/A
THE PAS        PTCLDY    64  57  77 SE5       30.00R
THOMPSON       MOCLDY    61  48  63 CALM      29.99F
WINNIPEG       CLEAR     63  61  94 N5        29.94R
LYNN LAKE      CLEAR     61  55  82 SE7       30.00R
CHURCHILL      PTCLDY    55  43  62 E6        29.98S
GILLAM         MOCLDY    54  43  66 SE5       30.02R
$$
                ***SASKATCHEWAN***

CITY           SKY/WX    TMP DP  RH WIND       PRES   REMARKS
ESTEVAN          N/A     70  55  60 N15G22    29.98R SMOKE
KINDERSLEY     LGT RAIN  63  59  88 E6        30.03F
LLOYDMINSTER   CLOUDY    68  57  68 W7        30.02F
PRINCE ALBERT  SMOKE     68  57  68 SW3       29.98F VSB 5/8
REGINA         CLOUDY    68  54  60 N8        30.00F SMOKE
YORKTON        CLOUDY    64  59  82 W2        29.98S HAZE
N. BATTLEFORD  CLEAR     70  59  68 VRB2      30.02F
LA RONGE       SMOKE     61  55  82 SW3       29.95F VSB 1
SASKATOON      SMOKE     66  57  72 W5        30.03S VSB 1
SWIFT CURRENT  HAZE      70  50  49 E9        30.03F VSB 3/8
$$
NOTE: THESE ARE AUTOMATED STATIONS WITH LIMITED QUALITY CONTROL
      "FAIR" INDICATES FEW OR NO CLOUDS BELOW 12,000 FEET WITH NO
      SIGNIFICANT WEATHER AND/OR OBSTRUCTIONS TO VISIBILITY.
      SKY/WX - SKY CONDITION AND SIGNIFICANT WEATHER.
      TMP - AIR TEMPERATURE.    DP   - DEWPOINT TEMPERATURE.
      RH  - RELATIVE HUMIDITY.  PRES - PRESSURE.
      HX  - HEAT INDEX.         WCI  - WIND CHILL INDEX.
$



USA.gov is the U.S. government's official web portal to all federal, state and local government web resources and services.